Wind_Speed
40 40 40 41 42 43 42 40 38 37 37 36 36 36 36 36 36 36 35 32 31 32 32 31 30 29 29 29 29 28 27 25 23 21 18 17 15 13 12 11 11 11 10 10 9 9 9 9 8
41 41 42 43 45 45 43 41 41 40 40 39 39 39 38 38 38 37 36 35 33 33 33 33 32 30 30 30 30 30 29 28 26 24 22 20 18 16 15 14 13 12 12 11 11 11 11 10 9
42 43 44 45 46 45 44 43 43 43 43 42 42 42 42 41 40 39 38 37 36 35 35 35 34 33 32 31 31 31 31 30 29 27 25 23 21 19 17 16 15 14 14 13 12 12 12 11 11
43 44 46 47 47 45 46 46 46 46 46 45 45 45 45 43 43 41 40 40 39 37 37 36 35 34 33 33 32 32 32 31 31 30 28 26 24 21 20 19 18 17 16 15 14 13 13 13 13
44 45 47 47 46 46 47 48 48 48 49 48 48 48 47 46 46 45 43 42 42 40 39 38 37 36 36 34 34 33 33 32 32 31 31 29 27 24 22 21 20 19 18 17 16 15 15 15 14
44 45 47 47 46 47 48 49 50 51 51 51 51 51 50 49 48 48 47 45 45 44 43 41 39 39 38 37 36 35 34 33 33 33 32 31 29 27 25 23 22 21 20 19 18 17 16 16 16
45 45 46 46 47 48 49 51 52 53 53 53 54 54 52 52 51 51 50 49 48 47 46 44 42 41 40 39 38 37 36 34 34 33 33 32 32 30 28 26 24 23 22 21 20 19 18 18 17
44 45 45 46 46 47 50 52 54 54 55 55 57 57 55 54 54 54 52 51 51 49 48 47 45 44 43 42 40 39 39 37 36 34 34 33 33 32 31 28 27 25 24 23 21 21 20 19 19
43 44 44 44 46 47 49 51 53 55 55 56 57 58 56 57 57 57 55 55 54 53 51 50 48 47 45 45 44 42 41 40 38 37 35 34 34 33 32 31 29 27 26 25 23 22 21 21 20
41 42 42 43 45 46 47 49 50 52 53 54 56 57 58 58 59 59 58 57 56 55 54 52 51 50 48 47 46 45 43 42 40 39 38 36 35 34 33 32 31 30 28 27 25 23 23 22 22
39 39 40 41 43 43 44 46 48 49 50 51 53 54 56 57 59 60 59 59 57 57 56 55 54 52 51 50 49 48 46 44 43 41 39 38 37 35 35 34 33 32 31 29 27 25 25 24 24
37 37 37 38 39 40 40 41 43 45 45 49 51 53 54 56 57 59 59 60 60 59 58 57 56 55 54 53 52 50 48 46 45 43 41 40 39 37 36 36 34 33 31 30 29 28 27 26 25
33 33 34 34 35 35 36 37 39 40 43 46 48 51 52 54 56 58 59 61 61 61 60 59 58 57 56 55 54 52 51 49 48 45 44 41 40 39 38 37 36 34 33 32 31 31 29 28 27
31 31 31 32 33 34 35 36 38 38 42 44 47 49 50 52 53 55 57 60 63 62 61 61 60 59 58 57 55 54 53 51 49 48 45 43 42 41 39 39 38 36 35 33 33 32 31 31 29
29 29 29 30 32 34 35 35 36 37 39 42 44 47 48 49 51 53 53 57 61 62 62 62 61 61 60 58 57 56 55 54 52 50 48 46 44 43 42 41 39 37 36 36 35 35 34 32 31
27 27 27 28 30 32 33 32 32 34 36 38 40 42 44 45 47 50 51 54 58 61 62 63 63 62 61 60 59 57 57 56 54 51 50 48 46 45 43 42 40 39 38 38 37 36 35 34 33
23 24 25 27 29 30 31 29 29 31 32 32 34 36 37 39 41 44 46 49 54 58 60 61 63 64 63 63 62 60 59 57 56 54 51 49 47 46 44 43 42 41 41 40 38 37 37 36 36
21 22 23 24 25 26 26 24 24 26 26 26 26 28 31 34 36 39 41 43 47 54 57 59 61 63 64 64 64 63 61 59 57 55 53 50 49 47 45 43 43 43 42 40 39 38 38 39 38
19 19 20 20 20 21 21 19 19 22 24 22 23 23 25 28 31 34 35 37 40 46 51 53 55 56 59 62 63 63 62 60 58 56 54 53 51 49 47 45 44 43 42 41 40 41 40 41 41
15 15 15 15 16 16 15 15 16 19 20 19 19 20 21 24 26 27 30 32 35 38 43 47 50 51 53 57 59 61 62 61 59 57 56 54 53 51 48 46 44 43 43 42 41 42 42 41 42
11 11 11 11 11 12 12 12 13 15 17 17 17 17 18 19 20 23 26 29 32 35 38 42 46 48 50 52 54 57 60 59 58 57 56 54 53 52 50 49 47 46 45 44 43 44 44 43 43
8 8 8 8 9 10 11 11 10 12 13 14 14 14 15 14 15 18 22 25 28 31 36 38 40 43 46 49 50 53 55 56 56 55 55 54 54 53 51 50 48 46 45 45 46 45 44 44 45
5 5 5 6 8 8 9 10 9 10 11 12 11 11 12 12 13 13 16 20 23 26 30 34 35 37 40 44 46 48 50 51 51 53 54 54 53 53 52 51 49 49 48 47 47 46 46 47 48
3 3 4 5 6 7 7 9 8 9 10 10 10 10 9 10 12 11 12 14 17 21 26 30 32 31 34 39 41 42 43 45 48 51 53 53 54 54 53 52 51 50 50 48 47 48 49 51 51
2 2 3 5 6 7 7 7 7 7 8 8 8 7 7 8 8 7 8 9 12 17 21 24 27 29 31 34 36 37 39 41 43 47 50 52 53 53 51 51 51 51 50 51 51 51 50 50 50
2 2 4 5 6 6 6 7 7 7 7 7 7 6 5 4 4 3 4 4 8 13 14 16 21 26 28 29 32 34 37 39 40 43 47 49 51 50 49 49 50 50 50 50 50 50 49 49 50
2 2 4 5 6 6 5 6 7 8 7 7 5 5 6 5 3 1 1 3 5 8 9 11 15 23 25 25 27 30 33 36 37 39 42 45 47 48 48 47 47 49 50 50 50 49 50 51 51
1 2 3 4 5 5 5 6 6 6 6 8 8 7 7 6 6 5 4 3 3 4 7 10 12 15 19 22 23 24 28 30 32 34 36 38 42 46 47 46 45 45 46 47 48 49 50 50 50
0 1 3 4 5 5 6 6 5 5 6 7 8 7 6 6 6 6 6 4 3 3 3 5 8 11 14 17 19 20 23 25 28 29 32 34 36 39 40 41 42 44 46 46 46 47 48 48 49
2 2 3 3 4 5 6 6 5 6 7 8 9 8 7 7 8 7 7 6 4 3 2 3 4 8 10 13 16 18 21 23 25 27 28 30 33 36 37 38 40 43 44 45 46 47 46 47 47
Wind_Direction
254 254 254 255 255 256 258 260 260 258 257 256 254 253 251 251 251 252 253 251 250 251 250 249 248 248 246 245 245 244 243 242 242 241 242 243 246 248 250 254 257 259 260 264 268 269 272 276 277
254 255 255 255 255 257 258 259 259 258 257 256 254 253 251 250 251 251 252 252 251 250 249 248 248 247 246 245 244 244 243 242 241 242 242 243 245 247 249 252 256 258 259 261 266 268 269 271 274
255 255 255 255 256 258 259 259 258 257 256 254 253 252 252 250 250 251 252 252 251 249 247 247 246 246 246 244 244 243 242 242 241 242 243 243 244 246 248 251 254 257 258 258 262 265 266 268 271
257 256 256 256 258 258 259 258 257 256 255 254 253 252 251 251 251 251 250 250 250 248 246 245 245 244 244 244 243 243 242 241 242 242 243 244 244 245 247 250 253 255 257 257 259 262 265 266 267
258 258 258 258 258 258 258 258 257 256 255 254 253 252 252 251 251 250 250 249 249 248 246 244 244 243 243 243 243 243 243 241 242 243 243 244 244 245 246 248 251 253 256 256 257 260 264 266 266
260 260 260 259 258 258 258 257 256 256 255 254 253 252 252 251 251 250 249 248 248 246 245 244 243 243 243 243 242 242 243 242 242 242 243 243 244 245 245 247 248 251 253 255 256 259 263 265 266
261 261 261 260 259 259 258 257 256 256 255 254 253 252 251 251 250 249 248 247 246 245 244 243 242 242 242 242 242 242 241 242 241 242 242 243 244 244 244 245 247 250 252 254 255 257 260 263 265
261 261 262 262 261 260 258 258 257 256 255 254 253 252 251 250 249 248 248 246 245 243 242 242 242 242 242 242 242 242 241 241 241 241 241 243 244 244 244 245 246 248 251 253 255 256 258 261 264
261 262 263 263 262 261 259 258 258 257 256 255 254 252 251 249 249 248 246 245 243 242 241 241 241 241 242 242 242 241 241 240 240 240 240 242 243 245 245 244 245 248 250 252 254 255 257 260 262
262 263 264 263 263 262 261 260 259 258 257 256 254 253 251 249 248 247 246 244 242 241 241 240 240 240 241 241 241 241 240 239 238 239 240 241 242 244 245 244 244 246 249 251 253 254 256 259 261
262 263 264 265 264 264 264 263 262 261 259 257 255 253 251 250 249 247 246 244 242 241 240 239 239 239 240 240 239 239 240 240 238 237 239 240 240 242 244 245 245 246 248 251 252 253 255 258 260
263 264 265 266 266 266 266 266 265 263 261 258 255 252 251 251 249 248 245 243 241 240 239 238 238 239 239 239 239 238 238 239 238 237 238 239 240 241 243 244 245 245 248 251 252 253 254 257 259
261 263 265 266 267 267 267 268 267 266 262 259 256 254 253 252 251 249 245 242 240 239 238 238 238 237 239 238 237 237 237 238 238 236 236 239 240 240 242 243 244 245 247 249 251 252 253 254 256
262 264 264 265 266 268 269 270 271 267 264 261 258 256 255 253 252 249 246 241 239 238 237 237 237 237 238 237 237 236 237 236 236 235 236 238 239 240 242 244 244 245 246 248 250 252 253 254 255
262 262 263 265 268 269 271 273 273 269 266 263 260 258 257 254 252 250 246 241 238 237 237 236 237 236 236 236 236 236 235 234 235 234 234 237 238 239 241 243 243 244 246 247 249 251 253 255 256
263 262 264 267 270 272 273 274 274 271 270 266 263 261 258 254 252 249 245 241 238 236 236 236 236 235 235 236 235 235 234 234 234 234 234 236 238 238 240 240 242 244 246 248 249 251 253 255 257
263 266 269 271 271 273 275 278 275 273 274 270 266 263 260 256 254 250 246 243 239 236 236 235 234 234 233 234 234 234 234 233 234 234 233 234 236 236 237 240 242 244 246 248 249 251 253 255 257
267 269 271 273 273 274 278 280 277 273 273 270 267 267 266 261 257 252 247 245 241 237 236 235 234 233 232 233 233 233 233 233 233 233 232 233 234 235 235 239 241 243 245 247 250 253 255 256 257
270 272 273 274 274 276 278 278 276 272 274 273 268 267 266 261 258 253 248 245 242 237 235 234 233 232 232 232 232 231 232 231 231 232 232 231 233 234 235 238 242 244 245 248 251 253 255 257 258
271 275 275 273 275 277 279 279 279 278 277 277 275 270 266 260 257 251 247 245 243 237 235 235 231 230 230 231 232 231 230 231 231 231 231 231 232 233 233 237 241 245 247 248 251 253 255 257 258
272 276 278 276 275 282 289 284 284 285 285 280 280 273 269 266 256 252 247 244 243 238 236 234 230 230 230 230 231 231 230 230 230 230 230 230 231 233 234 237 240 244 246 248 250 253 256 257 259
269 276 277 277 280 289 295 293 293 291 290 289 287 280 273 269 260 255 247 243 240 237 234 230 228 228 230 231 231 231 230 230 231 230 230 230 231 233 234 237 240 244 247 249 252 254 256 257 258
264 279 282 285 287 296 300 300 308 301 299 296 295 293 283 274 265 260 248 241 236 237 233 227 227 229 229 229 229 230 229 229 230 230 229 230 231 233 235 237 241 244 247 251 252 253 255 258 260
259 278 286 294 302 307 318 318 318 314 311 306 303 301 297 285 277 263 251 240 235 231 226 224 225 226 226 227 227 227 227 230 231 230 231 231 231 232 235 238 242 245 248 250 252 254 257 259 260
273 281 291 310 316 325 334 344 340 332 329 326 325 318 309 300 292 274 252 245 235 224 222 225 226 224 222 222 223 224 226 230 230 231 231 231 231 232 235 239 241 244 248 250 252 254 257 259 261
284 302 309 314 326 335 340 353 2 359 354 342 336 338 335 333 316 279 240 228 221 212 214 217 219 218 216 216 219 222 226 229 230 231 232 233 232 233 235 238 241 244 247 251 254 255 257 259 261
275 315 322 320 332 346 353 2 16 22 28 31 29 25 35 38 33 63 171 184 186 192 192 202 210 212 213 218 220 221 226 229 232 233 234 233 234 234 236 240 243 246 248 251 254 255 256 259 261
285 324 334 334 339 1 18 15 18 23 39 43 48 41 43 48 60 66 71 94 141 174 190 200 207 211 217 219 218 223 227 229 230 234 234 234 236 237 237 240 245 248 250 253 255 255 256 259 261
310 5 7 0 357 7 19 27 17 20 28 40 49 50 51 53 51 62 74 87 121 147 157 175 192 205 211 213 220 226 229 231 235 237 238 238 239 238 239 243 246 249 251 254 257 257 259 260 261
84 56 36 29 28 22 25 39 39 35 44 48 51 56 55 60 62 68 74 82 114 167 183 179 186 208 216 220 225 229 230 234 238 239 238 240 240 241 244 248 251 252 255 258 259 259 260 261 261
Height
5790 5792 5794 5796 5798 5799 5801 5804 5807 5810 5812 5815 5817 5819 5822 5825 5828 5832 5833 5836 5837 5839 5842 5844 5846 5848 5851 5853 5855 5857 5860 5862 5864 5865 5867 5868 5870 5871 5872 5873 5874 5875 5876 5877 5877 5878 5878 5879 5879
5782 5784 5787 5788 5789 5791 5795 5797 5799 5802 5804 5807 5810 5812 5815 5817 5820 5823 5826 5829 5832 5834 5836 5838 5841 5844 5846 5848 5850 5853 5855 5858 5860 5862 5864 5865 5867 5868 5869 5871 5872 5873 5874 5875 5876 5876 5877 5877 5878
5774 5776 5778 5779 5781 5785 5787 5790 5791 5793 5795 5798 5801 5804 5806 5810 5813 5816 5819 5822 5825 5828 5830 5832 5835 5838 5840 5843 5845 5848 5850 5853 5856 5858 5860 5862 5863 5865 5867 5868 5869 5870 5872 5873 5873 5874 5875 5875 5876
5766 5768 5769 5772 5774 5777 5778 5780 5782 5784 5786 5789 5792 5795 5798 5802 5805 5808 5812 5815 5817 5820 5823 5826 5829 5832 5835 5838 5840 5842 5845 5848 5851 5853 5856 5858 5860 5862 5863 5865 5866 5868 5869 5870 5871 5872 5872 5873 5874
5757 5759 5760 5763 5765 5768 5768 5769 5771 5774 5777 5780 5782 5785 5789 5793 5796 5800 5803 5807 5809 5813 5816 5819 5823 5826 5829 5832 5834 5837 5840 5842 5845 5848 5851 5853 5855 5857 5859 5861 5863 5864 5866 5867 5868 5869 5870 5871 5871
5748 5750 5752 5754 5757 5758 5758 5759 5761 5764 5766 5769 5772 5775 5779 5783 5787 5790 5794 5797 5801 5804 5808 5812 5816 5819 5822 5825 5828 5831 5834 5837 5840 5843 5846 5848 5851 5853 5855 5857 5859 5861 5862 5864 5865 5866 5867 5868 5869
5739 5740 5742 5745 5746 5748 5748 5748 5750 5753 5755 5758 5761 5764 5769 5773 5776 5780 5783 5787 5791 5795 5799 5804 5808 5811 5815 5818 5822 5825 5828 5831 5834 5837 5840 5843 5846 5848 5851 5853 5855 5857 5858 5860 5862 5863 5864 5865 5865
5729 5731 5733 5734 5736 5737 5737 5737 5739 5741 5744 5746 5748 5752 5758 5761 5764 5768 5772 5776 5781 5785 5790 5795 5799 5803 5807 5811 5814 5818 5821 5825 5828 5831 5834 5837 5840 5843 5846 5848 5850 5852 5854 5856 5858 5859 5860 5861 5862
5720 5723 5723 5724 5724 5725 5726 5726 5727 5729 5732 5734 5736 5740 5745 5747 5750 5755 5760 5765 5769 5774 5780 5785 5790 5794 5798 5802 5806 5810 5814 5817 5821 5825 5828 5831 5834 5837 5840 5843 5845 5848 5849 5851 5853 5855 5856 5857 5858
5711 5713 5714 5713 5713 5714 5714 5715 5716 5718 5720 5722 5723 5726 5729 5732 5736 5741 5746 5752 5757 5763 5769 5774 5779 5784 5789 5794 5798 5802 5806 5810 5814 5818 5821 5825 5828 5831 5834 5837 5840 5842 5844 5846 5848 5850 5852 5853 5854
5702 5703 5703 5703 5703 5703 5704 5704 5704 5706 5709 5709 5711 5713 5715 5718 5723 5727 5733 5738 5745 5751 5757 5763 5769 5774 5779 5784 5789 5794 5798 5802 5806 5811 5814 5818 5821 5824 5828 5831 5834 5837 5839 5841 5844 5845 5847 5848 5849
5694 5694 5694 5693 5693 5694 5694 5694 5695 5695 5697 5696 5698 5700 5702 5705 5708 5713 5718 5725 5732 5738 5745 5751 5757 5763 5768 5774 5779 5784 5789 5794 5799 5803 5807 5811 5815 5818 5822 5825 5828 5831 5834 5836 5838 5840 5841 5843 5844
5686 5686 5686 5685 5685 5685 5685 5686 5686 5688 5686 5685 5686 5688 5691 5693 5696 5699 5704 5711 5718 5725 5732 5739 5745 5751 5757 5763 5769 5775 5780 5785 5790 5794 5799 5803 5807 5811 5815 5818 5821 5824 5827 5830 5832 5834 5836 5838 5839
5678 5678 5678 5678 5677 5677 5677 5678 5677 5678 5675 5674 5675 5677 5678 5680 5683 5686 5690 5696 5704 5711 5719 5725 5732 5739 5745 5752 5759 5765 5770 5776 5781 5786 5790 5795 5800 5804 5808 5811 5814 5818 5821 5823 5826 5828 5830 5831 5833
5671 5672 5672 5671 5670 5670 5669 5671 5669 5666 5664 5664 5664 5665 5666 5667 5669 5673 5677 5683 5690 5698 5705 5712 5719 5726 5733 5740 5747 5753 5759 5765 5771 5777 5782 5787 5792 5796 5800 5804 5807 5811 5814 5816 5819 5821 5823 5825 5827
5664 5665 5666 5665 5663 5662 5663 5663 5660 5656 5655 5655 5654 5654 5655 5656 5658 5660 5664 5669 5676 5683 5691 5699 5705 5713 5720 5727 5734 5741 5748 5755 5761 5767 5773 5778 5782 5787 5792 5796 5800 5803 5807 5809 5812 5814 5816 5818 5820
5659 5659 5659 5658 5656 5655 5654 5655 5653 5649 5646 5646 5645 5644 5645 5646 5647 5649 5652 5657 5663 5670 5677 5684 5691 5699 5707 5714 5721 5729 5736 5743 5750 5757 5763 5769 5773 5778 5783 5788 5792 5796 5799 5802 5804 5807 5809 5811 5812
5653 5653 5653 5652 5650 5649 5648 5648 5646 5642 5640 5639 5637 5637 5637 5638 5639 5640 5642 5646 5650 5656 5663 5670 5677 5684 5692 5700 5708 5716 5723 5732 5738 5746 5753 5758 5764 5769 5775 5779 5783 5787 5791 5794 5796 5799 5801 5803 5804
5648 5648 5647 5646 5645 5644 5643 5642 5640 5637 5634 5633 5632 5631 5630 5630 5630 5631 5633 5635 5639 5644 5650 5657 5664 5672 5679 5687 5695 5703 5711 5719 5727 5735 5742 5748 5754 5760 5765 5770 5775 5778 5782 5786 5788 5791 5792 5794 5795
5644 5644 5643 5642 5640 5639 5639 5638 5635 5632 5630 5628 5627 5625 5624 5623 5622 5623 5624 5626 5630 5634 5640 5646 5653 5661 5668 5676 5683 5691 5699 5707 5715 5723 5731 5738 5744 5751 5756 5761 5766 5770 5773 5776 5779 5782 5783 5785 5786
5641 5641 5640 5639 5638 5637 5636 5636 5633 5630 5627 5625 5623 5621 5619 5617 5617 5617 5617 5619 5622 5626 5630 5636 5643 5650 5658 5665 5672 5678 5686 5694 5703 5711 5720 5727 5734 5741 5746 5752 5756 5760 5764 5767 5770 5773 5775 5776 5777
5639 5638 5637 5636 5636 5635 5634 5632 5631 5627 5624 5622 5619 5617 5615 5614 5613 5612 5612 5613 5615 5618 5622 5628 5634 5641 5648 5655 5661 5668 5675 5684 5693 5701 5709 5716 5723 5730 5736 5741 5746 5750 5754 5758 5761 5763 5765 5766 5767
5637 5637 5636 5635 5634 5634 5632 5630 5630 5626 5623 5620 5617 5614 5612 5610 5609 5608 5607 5608 5609 5612 5616 5621 5627 5633 5639 5646 5653 5660 5667 5675 5683 5690 5698 5705 5712 5719 5725 5731 5736 5740 5744 5748 5750 5753 5755 5756 5757
5636 5637 5636 5635 5634 5634 5632 5629 5627 5624 5621 5618 5616 5612 5610 5607 5606 5605 5604 5604 5606 5608 5612 5616 5621 5626 5632 5639 5645 5652 5660 5667 5673 5680 5687 5694 5702 5708 5714 5720 5726 5730 5734 5737 5739 5742 5743 5744 5746
5636 5637 5636 5635 5634 5633 5631 5628 5627 5623 5620 5617 5614 5612 5609 5606 5605 5604 5603 5603 5604 5606 5610 5613 5617 5622 5627 5633 5640 5646 5653 5659 5666 5673 5679 5685 5692 5698 5704 5710 5715 5719 5723 5726 5728 5730 5732 5733 5733
5636 5636 5636 5635 5633 5632 5630 5628 5627 5623 5620 5617 5614 5612 5609 5606 5605 5604 5604 5603 5605 5607 5609 5611 5614 5618 5624 5629 5635 5641 5647 5653 5659 5665 5671 5676 5682 5689 5695 5699 5704 5708 5711 5714 5716 5719 5720 5720 5721
5636 5635 5636 5635 5633 5632 5630 5629 5627 5624 5622 5619 5616 5613 5611 5608 5607 5606 5606 5605 5606 5607 5609 5610 5613 5617 5622 5627 5632 5637 5642 5647 5653 5658 5663 5668 5674 5680 5685 5689 5693 5697 5700 5702 5704 5706 5707 5708 5708
5636 5636 5636 5635 5633 5632 5631 5629 5628 5625 5623 5621 5618 5615 5613 5611 5610 5609 5608 5608 5608 5609 5610 5611 5614 5617 5621 5625 5630 5634 5638 5643 5648 5652 5656 5661 5666 5671 5675 5679 5682 5686 5688 5690 5692 5694 5695 5695 5695
5637 5637 5636 5635 5634 5633 5631 5633 5628 5626 5624 5622 5620 5618 5616 5614 5612 5611 5610 5611 5611 5611 5612 5614 5615 5617 5620 5624 5627 5631 5635 5639 5643 5647 5650 5654 5658 5662 5666 5670 5672 5675 5677 5678 5680 5681 5682 5682 5683
5637 5637 5637 5636 5635 5634 5633 5635 5630 5628 5626 5624 5622 5620 5619 5617 5615 5614 5613 5613 5614 5614 5615 5616 5617 5619 5621 5623 5627 5630 5633 5636 5639 5642 5644 5647 5651 5655 5658 5660 5663 5664 5666 5667 5668 5669 5669 5670 5670